FW1458 Weather Reports


Display with metric or nautical units.
time (UTC)temp
F
wind
direction
speed
MPH
gust
MPH
rain 1hr
in
rain 24hr
in
rain mn
in
humidity
%
barometer
mb
20260507113127 43 184 0.0 0.0 0.00 0.00 0.00 89 1019.3
20260507111556 43 184 0.0 0.0 0.00 0.00 0.00 89 1019.1
20260507110055 43 184 0.0 0.0 0.00 0.00 0.00 88 1019.1
20260507104601 44 184 0.0 0.0 0.00 0.00 0.00 88 1019.1
20260507103053 43 184 0.0 0.0 0.00 0.00 0.00 88 1019.0
20260507101554 43 65 0.0 0.0 0.00 0.00 0.00 88 1019.3
20260507100056 42 63 0.0 0.0 0.00 0.00 0.00 87 1019.1
20260507094548 43 63 0.0 0.0 0.00 0.00 0.00 86 1019.0
20260507093051 43 63 0.0 0.0 0.00 0.00 0.00 86 1018.8
20260507091547 43 63 0.0 0.0 0.00 0.00 0.00 86 1018.9
20260507090042 43 63 0.0 0.0 0.00 0.00 0.00 86 1018.9
20260507084552 44 51 0.0 0.0 0.00 0.00 0.00 86 1019.2
20260507083040 44 51 0.0 0.0 0.00 0.00 0.00 85 1019.7
20260507081538 44 51 0.0 0.0 0.00 0.00 0.00 84 1019.6
20260507080037 44 51 0.0 0.0 0.00 0.00 0.00 83 1019.2
20260507074537 44 51 0.0 0.0 0.00 0.00 0.00 83 1019.6
20260507073033 45 51 0.0 0.0 0.00 0.00 0.00 82 1019.1
20260507071536 45 51 0.0 0.0 0.00 0.00 0.00 82 1019.2
20260507070032 46 22 0.0 0.0 0.00 0.00 0.00 81 1019.3
20260507064527 47 22 0.0 0.0 0.00 0.00 0.00 79 1019.5
20260507063024 47 22 0.0 0.0 0.00 0.00 0.00 78 1019.5
20260507061528 48 22 0.0 0.0 0.00 0.00 0.00 78 1019.5
20260507060034 48 22 0.0 0.0 0.00 0.00 0.00 78 1019.0
20260507054530 49 22 0.0 0.0 0.00 0.00 0.00 77 1019.2
20260507053017 49 22 0.0 0.0 0.00 0.00 0.00 76 1019.1
20260507051515 49 22 0.0 0.0 0.00 0.00 0.00 75 1019.1
20260507050035 50 35 0.0 0.0 0.00 0.00 0.00 74 1019.1
20260507044520 50 35 0.0 0.0 0.00 0.00 0.00 75 1018.9
20260507043014 50 360 1.0 3.0 0.00 0.00 0.00 75 1019.1
20260507041512 51 5 0.0 0.0 0.00 0.00 0.00 74 1018.9
20260507040013 51 5 0.0 0.0 0.00 0.00 0.00 69 1019.0
20260507034516 52 5 0.0 0.0 0.00 0.00 0.00 67 1018.9
20260507033015 53 5 0.0 0.0 0.00 0.00 0.00 67 1018.6
20260507031511 54 5 0.0 0.0 0.00 0.00 0.00 66 1018.4
20260507030009 55 5 0.0 0.0 0.00 0.00 0.00 64 1018.5
20260507024515 55 26 0.0 0.0 0.00 0.00 0.00 62 1018.3
20260507023009 56 23 0.0 2.0 0.00 0.00 0.00 61 1018.3
20260507021517 56 9 0.0 3.0 0.00 0.00 0.00 60 1018.1
20260507020010 57 355 2.0 5.0 0.00 0.00 0.00 59 1018.1
20260507014507 58 355 3.0 6.0 0.00 0.00 0.00 57 1017.8
20260507013009 59 346 3.0 6.0 0.00 0.00 0.00 55 1017.6
20260507011514 60 355 3.0 8.0 0.00 0.00 0.00 53 1017.3
20260507010016 61 33 1.0 4.0 0.00 0.00 0.00 50 1017.2
20260507004505 62 35 2.0 12.0 0.00 0.00 0.00 50 1017.1
20260507003004 62 15 4.0 9.0 0.00 0.00 0.00 48 1017.0
20260507001506 63 17 2.0 10.0 0.00 0.00 0.00 50 1016.8
20260507000002 63 22 4.0 11.0 0.00 0.00 0.00 49 1016.7
20260506234501 64 345 8.0 13.0 0.00 0.00 0.00 47 1016.7
20260506233101 64 46 5.0 13.0 0.00 0.00 0.00 47 1016.6
20260506231559 64 34 4.0 12.0 0.00 0.00 0.00 46 1016.4
20260506230059 65 23 2.0 12.0 0.00 0.00 0.00 48 1016.1
20260506224558 65 346 6.0 12.0 0.00 0.00 0.00 46 1016.1
20260506223100 65 55 6.0 14.0 0.00 0.00 0.00 48 1016.0
20260506221556 65 58 4.0 13.0 0.00 0.00 0.00 49 1015.8
20260506220053 65 48 5.0 11.0 0.00 0.00 0.00 47 1015.9
20260506214552 65 28 5.0 16.0 0.00 0.00 0.00 51 1016.1
20260506213051 64 15 7.0 14.0 0.00 0.00 0.00 50 1016.1
20260506211550 65 109 6.0 16.0 0.00 0.00 0.00 50 1016.1
20260506210051 64 20 4.0 16.0 0.00 0.00 0.00 49 1016.4
20260506204558 64 5 7.0 15.0 0.00 0.00 0.00 48 1016.6
20260506203049 64 28 9.0 15.0 0.00 0.00 0.00 50 1016.8
20260506201553 64 36 7.0 14.0 0.00 0.00 0.00 50 1016.8
20260506200106 64 355 5.0 14.0 0.00 0.00 0.00 49 1016.8
20260506194550 64 350 8.0 14.0 0.00 0.00 0.00 54 1016.9
20260506193044 63 45 3.0 13.0 0.00 0.00 0.00 54 1017.1
20260506191545 62 26 4.0 14.0 0.00 0.00 0.00 54 1017.3
20260506190042 63 360 4.0 9.0 0.00 0.00 0.00 55 1017.3
20260506184542 62 355 6.0 13.0 0.00 0.00 0.00 55 1017.5
20260506183050 62 13 4.0 9.0 0.00 0.00 0.00 58 1017.9
20260506181542 61 35 3.0 10.0 0.00 0.00 0.00 57 1018.1
20260506180037 61 17 1.0 11.0 0.00 0.00 0.00 59 1018.0
20260506174535 61 49 5.0 13.0 0.00 0.00 0.00 59 1017.9
20260506173033 60 63 3.0 13.0 0.00 0.00 0.00 61 1018.5
20260506171541 60 53 3.0 11.0 0.00 0.00 0.00 59 1019.1
20260506170035 60 360 5.0 13.0 0.00 0.00 0.00 59 1019.2
20260506164535 60 360 6.0 14.0 0.00 0.00 0.00 59 1019.0
20260506163030 59 360 6.0 13.0 0.00 0.00 0.00 60 1018.7
20260506161539 59 67 4.0 12.0 0.00 0.00 0.00 61 1019.0
20260506160035 58 17 5.0 12.0 0.00 0.00 0.00 61 1018.7
20260506154521 58 43 3.0 9.0 0.00 0.00 0.00 62 1018.3
20260506153017 56 21 2.0 10.0 0.00 0.00 0.00 65 1017.9
20260506151520 54 25 4.0 10.0 0.00 0.00 0.00 66 1017.6
20260506150115 54 360 5.0 11.0 0.00 0.00 0.00 67 1017.5
20260506144512 54 117 4.0 10.0 0.00 0.00 0.00 67 1017.7
20260506143032 53 13 2.0 8.0 0.00 0.00 0.00 70 1017.6
20260506141506 52 5 4.0 12.0 0.00 0.00 0.00 70 1017.3
20260506140112 51 21 4.0 9.0 0.00 0.00 0.00 72 1017.8
20260506134558 51 52 2.0 10.0 0.00 0.00 0.00 73 1017.7
20260506133058 50 66 5.0 12.0 0.00 0.00 0.00 74 1017.7
20260506131558 50 89 3.0 14.0 0.00 0.00 0.00 75 1017.7
20260506130123 50 10 5.0 16.0 0.00 0.00 0.00 75 1017.4
20260506124553 50 344 7.0 16.0 0.00 0.00 0.00 77 1017.1
20260506123051 49 26 5.0 9.0 0.00 0.00 0.00 81 1017.2
20260506121551 49 52 3.0 9.0 0.00 0.00 0.00 82 1016.7
20260506120049 48 33 7.0 13.0 0.00 0.00 0.00 82 1016.7
20260506114548 48 35 5.0 12.0 0.00 0.00 0.00 82 1017.0